Regional Weather Roundup
Issued by NWS

Home | Current Version | Previous Version | Text Only | Print | Product List | Glossary Off
Versions: 1 2 3 4 5 6 7 8 9 10 11 12 13 14 15 16 17 18 19 20 21 22 23 24 25 26 27 28 29 30 31 32 33 34 35 36 37 38 39 40 41 42 43 44 45 46 47 48 49 50

000
ASUS43 KBIS 192010
RWRND

NORTH DAKOTA REGIONAL WEATHER ROUNDUP
NATIONAL WEATHER SERVICE BISMARCK ND
300 PM CDT THU OCT 19 2017

NOTE: "FAIR" INDICATES FEW OR NO CLOUDS BELOW 12,000 FEET WITH NO
SIGNIFICANT WEATHER AND/OR OBSTRUCTIONS TO VISIBILITY.


NDZ001>003-009>011-017-192100-
NORTHWEST NORTH DAKOTA

CITY           SKY/WX    TMP DP  RH WIND       PRES   REMARKS
WILLISTON      FAIR      76  36  23 S8        29.66F
MINOT          FAIR      78  32  18 SW10      29.67F
MINOT AFB      FAIR      76  35  22 SW10      29.65F
$$

NDZ018>021-031>035-040>046-192100-
SOUTHWEST NORTH DAKOTA

CITY           SKY/WX    TMP DP  RH WIND       PRES   REMARKS
BISMARCK       FAIR      78  35  21 VRB5      29.73F
DICKINSON      FAIR      80  28  15 SW8       29.72F
GARRISON         N/A     74  36  25 SW8       29.70F
HETTINGER ARPT FAIR      80  27  14 W5        29.77F
$$

NDZ004>008-012>016-024-026-027-054-192100-
NORTHEAST NORTH DAKOTA

CITY           SKY/WX    TMP DP  RH WIND       PRES   REMARKS
GRAND FORKS    FAIR      71  39  31 S15G24    29.74F
GRND FRKS AFB  FAIR      69  36  30 S13       29.74F
DEVILS LAKE    FAIR      71  38  29 S13       29.72F
$$

NDZ022-023-025-028>030-036>039-047>053-192100-
SOUTHEAST NORTH DAKOTA

CITY           SKY/WX    TMP DP  RH WIND       PRES   REMARKS
FARGO          FAIR      73  39  29 S18G25    29.78F
JAMESTOWN      FAIR      73  38  27 S14       29.74F
$$





USA.gov is the U.S. government's official web portal to all federal, state and local government web resources and services.